Flag for Malta Weather past 2 weeks in Valletta, Malta

Now
75 °F

Passing clouds.


Feels Like: 77 °F
Forecast: 60 / 72 °F
Wind: 6 mph from North

Location: Luqa

Current Time: Apr 18, 2015 at 6:13:01 PM

Latest Report: Apr 18, 2015 at 5:45 PM


Visibility: N/A

Pressure: 29.92 "Hg

Humidity: 39%

Dew point: 48 °F

Location of VallettaLocation

Historic Weather in Valletta — Graph

°F

Valletta temperature yesterday

Maximum temperature yesterday: 72 °F (at 4:15 PM)
Minimum temperature yesterday: 57 °F (at 1:45 AM)
Average temperature yesterday: 63 °F

Past Weeks' High & Low Weather Summary

 TemperatureHumidityPressure
High79 °F (Apr 18, 3:45 PM)100% (Apr 16, 6:45 AM)30.45 "Hg (Apr 16, 6:45 AM)
Low46 °F (Apr 11, 4:15 AM)26% (Apr 18, 3:15 PM)29.77 "Hg (Apr 5, 3:15 AM)
Average58 °F72%30.16 "Hg
* Reported Apr 3 4:15 PM — Apr 18 4:45 PM, Valletta, Weather by CustomWeather, © 2015

Note: Actual official high and low records may vary slightly from our data, if they occured in-between our weather recording intervals... More about our weather records

Advertising

Valletta weather history for previous 24 hours

 ConditionsComfort  
Time TempWeatherWind HumidityBarometerVisibility
4:45 PM
Sat, Apr 18
77 °FPassing clouds.9 mph34%29.92 "HgN/A
4:15 PM79 °FPassing clouds.7 mph30%29.92 "HgN/A
3:45 PM79 °FPassing clouds.9 mph28%29.92 "HgN/A
3:15 PM77 °FPassing clouds.8 mph26%29.92 "HgN/A
2:45 PM77 °FPassing clouds.9 mph28%29.95 "HgN/A
2:15 PM75 °FPassing clouds.9 mph34%29.95 "HgN/A
1:45 PM75 °FPassing clouds.12 mph50%29.98 "HgN/A
1:15 PM73 °FPassing clouds.9 mph53%29.95 "HgN/A
12:45 PM73 °FPassing clouds.9 mph57%29.95 "HgN/A
12:15 PM72 °FSunny.12 mph61%29.98 "Hg10 mi
11:45 AM72 °FSunny.14 mph61%29.98 "Hg10 mi
11:15 AM72 °FPassing clouds.9 mph61%29.98 "HgN/A
10:45 AM70 °FSunny.12 mph64%29.95 "Hg10 mi
10:15 AM70 °FPassing clouds.10 mph64%29.95 "HgN/A
9:45 AM68 °FPassing clouds.10 mph69%29.95 "HgN/A
9:15 AM66 °FSunny.6 mph73%29.95 "Hg10 mi
8:45 AM64 °FSunny.2 mph83%29.92 "Hg10 mi
8:15 AM63 °FSunny.2 mph88%29.92 "Hg10 mi
7:45 AM57 °FSunny.1 mph94%29.92 "Hg10 mi
7:15 AM57 °FClear.1 mph88%29.92 "Hg10 mi
6:45 AM55 °FClear.1 mph94%29.92 "Hg10 mi
6:15 AM57 °FClear.3 mph94%29.95 "Hg10 mi
5:45 AM57 °FPassing clouds.3 mph94%29.95 "HgN/A
5:15 AM59 °FClear.3 mph88%29.95 "Hg10 mi
4:45 AM59 °FClear.5 mph88%29.95 "Hg10 mi
4:15 AM61 °FClear.3 mph77%29.98 "Hg10 mi
3:45 AM64 °FPassing clouds.5 mph64%29.98 "HgN/A
3:15 AM66 °FPassing clouds.6 mph56%29.98 "HgN/A
2:45 AM66 °FClear.8 mph52%29.98 "Hg10 mi
2:15 AM66 °FClear.9 mph49%30.01 "Hg10 mi
1:45 AM64 °FClear.8 mph60%30.01 "Hg10 mi
1:15 AM66 °FClear.10 mph49%30.04 "Hg10 mi
12:45 AM63 °FClear.8 mph59%30.04 "Hg10 mi
12:15 AM59 °FPassing clouds.3 mph82%30.04 "HgN/A
11:45 PM
Fri, Apr 17
59 °FClear.3 mph82%30.07 "Hg10 mi
11:15 PM61 °FClear.7 mph77%30.07 "Hg10 mi
10:45 PM59 °FClear.7 mph88%30.07 "Hg10 mi
10:15 PM61 °FClear.7 mph83%30.07 "Hg10 mi
9:45 PM61 °FClear.7 mph83%30.07 "Hg10 mi
9:15 PM61 °FClear.8 mph83%30.07 "Hg10 mi
8:45 PM63 °FClear.8 mph77%30.07 "Hg6 mi
8:15 PM61 °FSunny.7 mph83%30.07 "Hg10 mi
7:45 PM64 °FPassing clouds.3 mph64%30.07 "HgN/A
7:15 PM66 °FPassing clouds.3 mph68%30.07 "HgN/A
6:45 PM66 °FPassing clouds.5 mph64%30.07 "HgN/A
6:15 PM68 °FPassing clouds.5 mph60%30.07 "HgN/A
Weather by CustomWeather, © 2015

See weather overviewHow to use our weather pages